TINTIN B (43217 NORAD) Tracking and Keplerian Element Data

This shows tracking and keplerian element data for the satellite.

Feedback or suggestion? Click here.




ElementValue
Catalog43217
NameTINTIN B
Epoch Orbit6416
Epoch Day111.10651055
Epoch Year2019
RAAN120.1288
Inclination97.461
Eccentricity0.0010433
Argument of Perigee233.4435
Mean Anonmoly126.584
Mean Motion15.2000468
Decay Rate1.487E-05
L11 43217U 18020C 19111.10651055 .00001487 00000-0 72186-4 0 9992
L22 43217 97.4610 120.1288 0010433 233.4435 126.5840 15.20004680 64162

Live tracking and technical data element details for TINTIN B (NORAD 43217). TINTIN B can be tracked NOW for your location showing map with azimuth and elevation plus other details from your city location.

Track the satellite on the map from your city or location and see movement details for azimuth, elevation, latitude, longitude, range, height, and movement on the map or in text.







IsCatalogInMostPopularTable: catalog: 43217, numindb: 278
Update: records affected: 1



GetName: 43217 TINTIN B

Hit Count: updated at: Tue, 23 Apr 2019 02:06:06 GMT